CDT,Max TemperatureF,Mean TemperatureF,Min TemperatureF,Max Dew PointF,MeanDew PointF,Min DewpointF,Max Humidity, Mean Humidity, Min Humidity, Max Sea Level PressureIn, Mean Sea Level PressureIn, Min Sea Level PressureIn, Max VisibilityMiles, Mean VisibilityMiles, Min VisibilityMiles, Max Wind SpeedMPH, Mean Wind SpeedMPH, Max Gust SpeedMPH,PrecipitationIn, CloudCover, Events, WindDirDegrees
2013-9-1,91,80,70,76,72,68,93,79,55,29.93,29.90,29.86,10,9,7,9,2,,0.06,1,Rain-Thunderstorm,200
2013-9-2,89,79,69,75,72,70,100,83,59,29.99,29.93,29.87,10,7,2,10,3,,0.00,2,,198
2013-9-3,93,83,73,75,73,71,94,79,49,30.00,29.95,29.90,10,9,3,9,2,,0.00,3,Thunderstorm,216
2013-9-4,91,80,69,74,71,68,100,82,53,30.08,30.03,29.97,10,7,0,8,2,,0.06,3,Fog,170
2013-9-5,91,82,72,72,69,65,93,71,41,30.13,30.08,30.04,10,9,5,6,2,,0.00,2,,37
2013-9-6,90,77,64,70,66,62,93,71,43,30.11,30.06,30.02,10,9,5,9,2,,0.00,0,,11
2013-9-7,91,80,68,73,69,65,91,75,47,30.06,30.02,29.97,10,10,7,7,1,,0.00,2,Hail,96
2013-9-8,93,80,66,73,68,64,93,73,38,30.00,29.98,29.94,10,9,6,4,1,,0.00,1,,49
2013-9-9,93,80,66,75,68,64,93,67,41,30.06,30.02,29.97,10,9,6,7,1,,0.01,1,,180
2013-9-10,91,81,71,71,68,63,94,72,42,30.15,30.11,30.05,10,8,2,10,3,,0.00,1,,106
2013-9-11,91,81,70,71,67,63,90,69,38,30.17,30.11,30.06,10,10,10,10,4,16,0.00,1,,81
2013-9-12,91,78,66,70,65,58,90,68,34,30.07,30.00,29.92,10,10,9,6,1,,0.00,0,,48
2013-9-13,91,78,64,70,65,62,90,69,38,29.92,29.88,29.82,10,10,9,10,3,,0.00,1,,332
2013-9-14,88,76,63,65,57,52,87,59,31,30.02,29.95,29.88,10,10,10,9,5,,0.00,0,Hail,6
2013-9-15,93,78,62,69,64,57,86,65,40,30.08,30.05,30.01,10,10,10,8,2,,0.00,1,,31
2013-9-16,93,81,69,72,69,66,90,68,45,30.10,30.06,30.01,10,9,6,8,2,,0.00,1,Hail,18
2013-9-17,91,80,68,72,68,63,87,66,44,30.09,30.06,30.00,10,10,10,10,4,17,0.00,1,,66
2013-9-18,84,78,71,70,67,66,94,73,55,30.15,30.10,30.05,10,9,7,10,6,18,0.00,3,,99
2013-9-19,88,77,66,66,64,62,87,66,42,30.13,30.07,30.02,10,10,10,10,5,17,0.00,0,,111
2013-9-20,89,76,64,72,67,62,93,72,48,30.05,29.96,29.86,10,10,10,12,3,,0.00,1,,155
2013-9-21,79,74,69,75,72,66,100,93,83,29.89,29.79,29.73,10,8,0,9,5,,0.81,7,Fog-Rain,216
2013-9-22,81,74,66,67,64,61,94,80,54,29.83,29.79,29.76,10,10,10,8,5,,0.00,4,,15
2013-9-23,78,71,64,73,69,62,96,88,76,29.93,29.88,29.82,10,9,2,9,4,,0.01,6,,76
2013-9-24,78,74,69,72,70,66,100,91,79,29.94,29.89,29.77,10,5,1,23,6,30,1.23,8,Rain-Thunderstorm,87
2013-9-25,87,78,68,72,70,66,100,85,55,29.83,29.80,29.75,10,7,0,7,2,,0.02,5,Fog-Rain,339
2013-9-26,81,74,66,68,66,64,100,85,58,29.98,29.91,29.82,10,6,0,8,4,,0.00,4,Fog,41
2013-9-27,82,70,59,64,60,56,96,73,42,30.09,30.03,29.98,10,10,8,9,2,,0.01,0,,58
2013-9-28,82,70,59,61,57,55,87,69,44,30.14,30.08,30.04,10,10,10,10,4,,0.00,0,,74
2013-9-29,79,68,57,64,59,54,93,74,50,30.09,30.04,29.99,10,10,10,7,1,,0.01,1,Hail,83
2013-9-30,79,71,63,67,63,59,90,79,60,30.04,29.99,29.95,10,10,10,5,1,,0.00,5,,27